Volver al catálogo

ASTROCAST-0404

ActivoComunicacionesSSO
NORAD 55112·PAYLOAD·🇨🇭 Switzerland

Lanzado Jan 3, 2023 desde Cape Canaveral Space Force Station

Loading…

Próximos Pases (próximas 24 horas)

TLE

ActualizadoSource: Space-Track

Época: Sep 13, 2026, 19:27 UTC

1 55112U 23001DH  26256.81078182  .00017460  00000-0  60246-3 0  9995
2 55112  97.5660 352.4045 0007063  44.2838 315.8966 15.30016452158073

Sigue ASTROCAST-0404 en tiempo real con AllMySat

Download on the App Store